Regional Weather Roundup
Issued by NWS Goodland, KS

Home | Current Version | Previous Version | Text Only | Print | Product List | Glossary Off
Versions: 1 2 3 4 5 6 7 8 9 10 11 12 13 14 15 16 17 18 19 20 21 22 23 24 25 26 27 28 29 30 31 32 33 34 35 36 37 38 39 40 41 42 43 44 45 46 47 48 49 50

000
ASUS43 KGLD 241759
RWRGLD

GOODLAND FORECAST AREA HOURLY WEATHER ROUNDUP
NATIONAL WEATHER SERVICE GOODLAND KS
1200 PM MDT TUE APR 24 2018

...OFFICIAL OBSERVATIONS...

CITY           SKY/WX    TMP DP  RH WIND       PRES   REMARKS
GOODLAND KS    CLOUDY    37  35  92 N18G29    30.35S
HILL CITY KS   LGT RAIN  44  43  96 NW15G29   30.31R FOG
IMPERIAL NEB   CLOUDY    41  38  89 NW24G31   30.36S
MCCOOK NEB     CLOUDY    42  39  89 N20G26    30.33S
AKRON CO       CLOUDY    38  32  79 N24G33    30.39F
BURLINGTON CO  CLOUDY    36  35  96 NW16G23   30.37S
LIMON CO       CLOUDY    35  32  88 N20G32    30.39S
$$

...UNOFFICIAL OBSERVATIONS...

CITY           SKY/WX    TMP DP  RH WIND       PRES   REMARKS
NORTON KS      LGT RAIN  43  39  87 NW18      30.30
SHARON SPRINGS   N/A     38  36  93 NW20G30     N/A
KIT CARSON CO    N/A     38  33  84 MISG        N/A
YUMA CO        CLOUDY    39  32  75 NW22G28   30.39S
$$




USA.gov is the U.S. government's official web portal to all federal, state and local government web resources and services.